Flag Weather past 2 weeks in Haldimand, Ontario, Canada

Now
28 °F

Light snow. Ice fog.


Feels Like: 20 °F
Forecast: 23 / 29 °F
Wind: 8 mph from Northwest

Location: Hamilton Airport

Current Time: Nov 27, 2014 at 10:08:03 PM

Latest Report: Nov 27, 2014 at 9:00 PM


Visibility: 2 mi

Pressure: 30.15 "Hg

Humidity: 86%

Dew point: 25 °F

Location of HaldimandLocation

Historic Weather in Haldimand — Graph

°F

Haldimand temperature yesterday

Maximum temperature yesterday: 34 °F (at 1:00 PM)
Minimum temperature yesterday: 30 °F (at 1:00 AM)
Average temperature yesterday: 31 °F

Past Weeks' High & Low Weather Summary

 TemperatureHumidityPressure
High61 °F (Nov 24, 11:00 AM)100% (Nov 16, 7:00 PM)30.47 "Hg (Nov 16, 7:00 PM)
Low9 °F (Nov 19, 6:00 AM)47% (Nov 15, 2:00 PM)29.17 "Hg (Nov 24, 12:00 PM)
Average29 °F79%29.99 "Hg
* Reported Nov 12 9:00 PM — Nov 27 9:00 PM, Haldimand, Weather by CustomWeather, © 2014

Note: Actual official high and low records may vary slightly from our data, if they occured in-between our weather recording intervals... More about our weather records

Advertising

Haldimand weather history for previous 24 hours

 ConditionsComfort  
Time TempWeatherWind HumidityBarometerVisibility
9:00 PM
Nov 27
28 °FLight snow. Ice fog.8 mph86%30.15 "Hg2 mi
8:00 PM28 °FLight snow. Ice fog.15 mph93%30.12 "Hg1 mi
7:00 PM30 °FSnow flurries. Mostly cloudy.2 mph93%30.10 "Hg4 mi
6:00 PM30 °FSnow flurries. Overcast.7 mph86%30.09 "Hg12 mi
5:00 PM32 °FSnow flurries. Mostly cloudy.5 mph80%30.09 "Hg6 mi
4:00 PM32 °FSnow flurries. Cloudy.6 mph80%30.08 "Hg7 mi
3:03 PM34 °FSnow flurries. Mostly cloudy.8 mph75%30.06 "Hg6 mi
2:00 PM34 °FMostly cloudy.8 mph81%30.06 "Hg15 mi
1:00 PM34 °FMore clouds than sun.10 mph75%30.06 "Hg15 mi
12:00 PM32 °FMore clouds than sun.10 mph80%30.08 "Hg15 mi
11:00 AM30 °FMore clouds than sun.7 mph86%30.10 "Hg15 mi
10:00 AM30 °FLight snow. Partly sunny.7 mph86%30.09 "Hg15 mi
9:00 AM28 °FLight snow. More clouds than sun.6 mph93%30.09 "Hg15 mi
8:00 AM28 °FLight snow. More clouds than sun.3 mph86%30.09 "Hg15 mi
7:00 AM28 °FLight snow. Mostly cloudy.3 mph80%30.08 "Hg15 mi
6:00 AM28 °FLight snow. Mostly cloudy.3 mph80%30.06 "Hg6 mi
5:00 AM28 °FLight snow. Overcast.2 mph86%30.06 "Hg15 mi
4:00 AM28 °FLight snow. Mostly cloudy.3 mph86%30.06 "Hg15 mi
3:00 AM28 °FLight snow. Overcast.No wind86%30.07 "Hg15 mi
2:00 AM28 °FLight snow. Mostly cloudy.7 mph93%30.07 "Hg7 mi
1:00 AM30 °FHail. Overcast.2 mph93%30.07 "Hg10 mi
12:00 AM30 °FSnow flurries. Overcast.2 mph93%30.08 "Hg12 mi
11:00 PM
Nov 26
30 °FSnow flurries. Low clouds.6 mph93%30.07 "Hg12 mi
10:00 PM30 °FSnow flurries. Overcast.8 mph80%30.09 "Hg5 mi
Weather by CustomWeather, © 2014

See weather overviewHow to use our weather pages